カタログに戻る

HULIANWANG DIGUI-23

運用中通信PO
NORAD 63690·PAYLOAD·🇨🇳 China

打ち上げ Apr 28, 2025 から Wenchang Space Launch Site

Loading…

次のパス (今後24時間)

TLE

最新Source: Space-Track

元期: Sep 14, 2026, 13:54 UTC

1 63690U 25086D   26257.57959944  .00000037  00000-0  51267-4 0  9994
2 63690  86.5026 283.1530 0001950  81.2805 278.8550 13.24413650 66695

AllMySatでHULIANWANG DIGUI-23をリアルタイム追跡

Download on the App Store